AirNav   Textron
 
 1195 users online  

MY50 Frontenac Airport
Frontenac, Minnesota, USA

GOING TO FRONTENAC?


FAA INFORMATION EFFECTIVE 14 SEPTEMBER 2017

Location

FAA Identifier: MY50
Lat/Long: 44-30-09.8830N / 092-21-40.6540W
44-30.164717N / 092-21.677567W
44.5027453 / -92.3612928
(estimated)
Elevation: 793 ft. / 242 m (estimated)
Variation: 02E (1985)
From city: 1 mile S of FRONTENAC, MN
Time zone: UTC -5 (UTC -6 during Standard Time)
Zip code: 55041

Airport Operations

Airport use: Private use, PERSONAL USE.
Activation date: 10/1982
Control tower: no
ARTCC: MINNEAPOLIS CENTER
FSS: PRINCETON FLIGHT SERVICE STATION
Attendance: UNATNDD
Wind indicator: yes
Segmented circle: no

Airport Communications

WX AWOS-3 at RGK (7 nm NW): 119.25 (715-594-3763)

Nearby radio navigation aids

VOR radial/distance  VOR name  Freq  Var
FGTr096/35.9FARMINGTON VORTAC115.7006E
ONAr311/38.0WINONA VOR/DME111.4001E

 
NDB name  Hdg/Dist  Freq  Var  ID
REGUE113/13.527402ERG .-. --.
HOPEY129/33.340003EPPI .--. .--. ..

Airport Services

Runway Information

Runway 13/31

Dimensions: 2000 x 60 ft. / 610 x 18 m
Surface: turf
RUNWAY 13  RUNWAY 31
Traffic pattern: leftleft
Obstructions: 15 ft. road, 500 ft. from runway
POWERLINES 1000' FM RWY END.
25 ft. trees, 500 ft. from runway
AND BLDGS.

Airport Ownership and Management from official FAA records

Ownership: Privately-owned
Owner: LARRY GETCHELL
29476 LAKE AVE.
FRONTENAC, MN 55026
Phone 612-345-4882

Airport Operational Statistics

Aircraft based on the field: 1
Single engine airplanes: 1
    

Instrument Procedures

There are no published instrument procedures at MY50.

Some nearby airports with instrument procedures:

KRGK - Red Wing Regional Airport (7 nm NW)
KLUM - Menomonie Municipal Airport-Score Field (31 nm NE)
KTOB - Dodge Center Airport (35 nm SW)
3T3 - Boyceville Municipal Airport (36 nm NE)
KSGS - South St Paul Municipal Airport-Richard E Fleming Field (36 nm NW)
 
Loc | Ops | Rwys | IFR | FBO | Links
Com | Nav | Svcs | Stats | Notes


 
Area around MY50 (Frontenac Airport)
 
Road maps at: MapQuest Bing Google
 
Aerial photo
No photo
 
Sectional chart

 
Airport distance calculator
Flying to Frontenac Airport? Find the distance to fly.

From to MY50

Sunrise and sunset
Times for 26-Sep-2017
 Local
(UTC-5)
 Zulu
(UTC)
Morning civil twilight06:3311:33
Sunrise07:0212:02
Sunset18:5923:59
Evening civil twilight19:2800:28

Current date and time
Zulu (UTC)  26-Sep-2017 13:09:00
Local (UTC-5)  26-Sep-2017 08:09:00
 
METAR
KRGK 
6nm NW 
261255Z AUTO 30004KT 10SM -DZ OVC007 16/14 A2991 RMK AO2 P0001
TAF
KRST 
37nm S 
260752Z 2608/2706 VRB03KT 3/4SM BR VCSH OVC003 TEMPO 2608/2610 1/4SM FG VV002 FM261000 28006KT 3SM -SHRA BR BKN008 FM261200 28009KT 4SM BR BKN003 FM261500 29011KT P6SM BKN008 FM261800 30014KT P6SM BKN020 FM270100 31011KT P6SM BKN050
KRNH 
40nm N 
260520Z 2606/2706 VRB03KT 6SM -SHRA BR BKN012 OVC020 FM260900 VRB03KT 2SM BR VCSH OVC007 FM261200 VRB03KT 3SM BR OVC003 FM261500 28005KT 5SM BR OVC008 FM261900 28013KT P6SM OVC015 FM262200 28012KT P6SM OVC020 FM270100 28008KT P6SM OVC020
KMSP 
44nm NW 
260848Z 2609/2712 33005KT P6SM -RA OVC007 FM261400 30007KT P6SM VCSH OVC008 FM261800 28010KT P6SM OVC015 FM262100 29012KT P6SM OVC025 FM270600 30007KT P6SM SCT025
KEAU 
44nm NE 
260520Z 2606/2706 VRB03KT 6SM -SHRA BR OVC009 FM260900 24004KT 4SM -SHRA BR OVC008 FM261700 26006KT P6SM OVC010 FM262000 28010KT P6SM OVC015 FM270200 29007KT P6SM OVC015
NOTAMs
Click for the latest NOTAMs
NOTAMs are issued by the DoD/FAA and will open in a separate window not controlled by AirNav.

 

 
 

Would you like to see your business listed on this page?

 If your business provides an interesting product or service to pilots, flight crews, aircraft, or users of the Frontenac Airport, you should consider listing it here.  To start the listing process, click on the button below
 
Add a business
 

Other Pages about Frontenac Airport

Update a link
 
Copyright © AirNav, LLC. All rights reserved. Privacy Policy  Contact